Dewpoint
27 22 22 23 24 24 25 24 21 21 22 31 39 41 45 48 50 52 54 55 58 59 63 66 68 70 71 71 70 69 70 69 71 73 73 75 75 76 77 75 74 74 74 73
28 22 20 21 21 21 19 18 19 21 29 41 47 48 49 53 57 59 61 63 64 66 67 68 69 70 71 71 71 73 72 72 74 76 78 78 76 74 77 76 73 75 73 73
29 25 21 21 21 19 20 20 19 21 34 47 50 52 55 56 58 60 61 61 63 64 66 68 69 71 70 72 74 75 74 75 76 75 73 71 73 74 74 73 71 71 71 72
25 29 25 22 23 23 22 24 21 35 44 48 52 54 55 57 60 61 62 63 64 64 67 68 69 70 71 72 73 73 72 71 70 69 68 68 69 70 69 69 69 68 68 71
26 25 27 30 31 27 28 30 28 34 44 50 54 57 59 60 61 62 63 63 62 63 66 69 69 70 71 70 71 71 70 68 68 68 68 68 68 68 70 70 70 68 68 72
25 23 26 32 31 29 28 30 37 41 47 49 50 43 58 60 61 62 63 63 63 64 65 67 68 68 68 68 68 68 69 68 68 68 68 67 67 67 67 67 67 67 72 72
25 24 25 27 30 33 31 30 41 43 47 45 49 59 60 61 62 63 63 64 65 65 66 67 68 68 67 68 67 68 68 67 68 68 68 68 68 68 68 68 69 69 69 71
26 28 27 37 39 32 40 45 43 46 48 48 56 58 59 60 61 61 62 62 64 66 66 67 67 67 66 67 68 68 67 67 69 69 67 66 67 65 66 67 68 68 68 66
24 27 43 42 37 38 38 45 46 47 47 52 53 58 59 60 61 61 60 61 62 63 64 64 66 66 65 67 68 68 69 68 67 68 65 65 65 64 62 63 61 60 60 60
32 41 40 39 36 39 40 42 46 47 48 49 55 59 59 60 59 59 59 59 60 62 64 65 65 65 66 67 67 67 68 66 64 63 63 62 59 57 60 59 60 61 60 60
44 43 42 38 41 41 42 46 48 49 49 51 57 59 59 59 60 59 60 61 63 63 64 64 65 66 64 65 68 65 64 62 61 62 64 61 59 56 55 57 53 55 55 56
35 49 50 51 49 47 48 50 51 51 52 57 60 61 61 61 62 62 63 64 63 64 64 64 63 64 64 63 64 64 59 57 58 59 62 59 58 56 48 48 46 44 45 54
36 41 45 45 50 49 53 52 52 54 59 62 62 61 62 63 65 62 64 63 63 63 63 63 63 63 64 64 64 63 60 60 58 59 58 64 62 64 57 53 49 47 45 44
50 46 46 48 50 51 53 54 57 59 62 61 61 63 63 63 63 63 62 62 62 62 61 62 62 62 63 64 64 64 62 57 61 64 64 62 66 66 64 62 57 53 48 50
50 42 44 50 52 55 55 57 59 60 61 62 63 63 63 63 63 62 60 58 58 58 59 59 60 61 63 62 62 61 60 60 60 59 57 57 60 61 61 59 55 54 53 48
47 43 48 52 55 55 57 59 61 62 62 62 63 63 63 63 62 60 59 58 58 57 58 59 59 60 61 62 63 59 57 57 57 57 55 55 56 53 48 48 47 46 44 41
51 50 53 55 57 59 59 61 62 62 63 62 63 63 62 61 60 59 58 57 58 57 56 55 55 57 57 57 55 55 55 53 54 52 50 49 45 43 41 39 38 38 39 39
53 52 55 59 60 59 60 62 63 63 63 63 64 62 61 60 59 59 58 57 56 55 54 55 53 53 52 50 46 45 43 42 39 36 35 34 35 35 35 35 36 36 36 40
55 54 58 60 60 62 62 62 62 63 63 63 62 61 61 61 60 58 57 57 56 53 49 47 49 48 42 44 46 34 32 32 35 36 36 40 37 35 34 34 34 34 34 34
56 58 60 61 64 63 62 62 62 62 62 61 61 61 60 59 58 57 55 52 50 47 47 43 44 41 41 40 46 33 35 35 35 35 34 34 34 35 36 37 36 35 36 36
59 60 62 64 64 64 63 62 62 61 62 62 61 60 59 58 57 55 53 46 48 46 42 49 41 37 36 41 39 35 35 36 36 37 37 37 39 36 37 37 37 36 36 36
63 63 64 64 63 62 62 61 62 62 61 61 60 59 57 55 55 52 51 48 42 46 43 39 39 46 41 48 37 36 37 39 40 39 38 38 38 38 38 38 38 37 37 38
63 63 63 63 62 62 62 61 61 61 60 60 58 56 53 51 49 46 43 45 38 44 41 40 44 44 48 44 40 39 39 40 39 39 39 39 38 39 39 39 38 39 39 40
64 64 63 62 61 61 60 61 59 60 60 59 57 55 51 44 41 38 40 43 45 44 41 41 42 47 46 41 42 42 41 41 41 41 41 41 40 39 39 39 39 39 40 39
64 63 61 61 60 59 59 59 59 58 58 57 55 52 47 40 37 36 38 39 44 42 39 46 46 47 43 41 42 41 42 41 42 41 40 40 39 39 40 40 40 41 41 46
61 60 60 60 58 57 57 56 54 53 51 49 45 39 36 38 39 40 43 43 41 42 42 42 42 43 42 41 41 39 39 39 40 40 40 39 40 40 40 39 39 39 40 40
60 55 58 57 56 56 53 53 52 48 43 39 37 38 37 38 40 41 42 39 39 39 40 41 41 43 40 40 39 38 38 38 39 38 39 40 40 40 40 41 41 41 43 43
Lifted_Index
-1 -1 -1 -1 -1 -1 -1 -1 -1 -1 -1 -1 -1 -1 -2 -3 -4 -5 -5 -5 -6 -6 -7 -7 -8 -8 -8 -9 -9 -9 -9 -9 -9 -9 -9 -9 -9 -9 -8 -7 -6 -6 -6 -6
-1 -1 -1 -1 -1 -1 -1 -1 -1 -1 -1 -1 -2 -3 -3 -4 -5 -5 -5 -5 -6 -6 -7 -7 -7 -8 -8 -8 -9 -9 -9 -9 -9 -9 -9 -9 -9 -9 -8 -7 -6 -6 -6 -6
-1 -1 -1 -1 -1 -1 -1 -1 -1 -1 -1 -2 -3 -4 -4 -5 -5 -5 -5 -5 -5 -5 -5 -6 -6 -7 -7 -8 -8 -8 -8 -8 -8 -8 -8 -8 -7 -7 -7 -6 -5 -4 -5 -5
-1 -1 -1 -1 -1 -1 -1 -0 -1 -1 -2 -3 -3 -4 -4 -4 -4 -4 -4 -4 -4 -4 -4 -5 -5 -5 -5 -6 -6 -6 -6 -6 -6 -6 -6 -5 -5 -5 -5 -4 -3 -3 -3 -4
-1 -1 -1 -1 -0 -0 -0 -0 0 -1 -2 -3 -3 -4 -4 -4 -4 -4 -3 -3 -3 -3 -3 -4 -3 -3 -4 -4 -4 -3 -3 -3 -3 -3 -3 -3 -2 -2 -2 -2 -2 -2 -3 -3
-1 -1 -1 -1 -0 0 -0 -0 -0 -1 -1 -2 -3 -3 -4 -4 -4 -3 -3 -3 -2 -2 -2 -2 -2 -2 -2 -2 -2 -2 -2 -2 -1 -1 -1 -1 -1 -1 -1 -1 -1 -1 -2 -2
-1 -1 -1 -1 -0 0 0 -0 -1 -1 -1 -2 -2 -4 -4 -4 -3 -3 -3 -2 -2 -2 -2 -2 -2 -2 -2 -1 -1 -1 -1 -1 -1 -1 -0 -0 -0 0 0 -0 -1 -1 -1 -1
-1 -1 -1 -1 -0 0 -0 -1 -1 -1 -1 -2 -3 -4 -4 -3 -3 -2 -2 -2 -2 -1 -1 -1 -1 -1 -1 -1 -1 -1 -1 -1 -1 -0 -0 0 1 1 1 0 -1 -1 -1 -1
-1 -1 -1 -1 -0 -0 -1 -1 -1 -1 -1 -2 -3 -4 -3 -3 -2 -1 -1 -1 -1 -1 -0 -0 -0 -1 -1 -1 -1 -1 -1 -1 -0 0 1 1 2 2 2 1 0 0 0 0
-1 -1 -1 -1 -0 -1 -1 -1 -1 -1 -1 -2 -3 -3 -3 -2 -2 -1 -0 -0 -0 -0 -0 -0 -0 -0 -1 -1 -1 -1 -1 -1 0 1 2 2 2 2 2 2 2 2 2 2
-2 -2 -1 -1 -1 -1 -2 -2 -2 -2 -2 -2 -3 -3 -3 -2 -1 -1 -0 -0 -0 -0 0 0 -0 -0 -0 -1 -1 -1 -0 0 1 1 1 2 3 3 3 3 3 3 3 3
-2 -2 -2 -2 -2 -2 -3 -3 -3 -3 -3 -3 -4 -3 -3 -2 -1 -1 -1 -0 -0 -0 0 0 0 -0 -0 -1 -1 -0 0 1 1 -0 -1 0 1 2 2 3 3 3 2 2
-2 -2 -2 -3 -3 -3 -4 -4 -4 -4 -4 -4 -4 -3 -3 -2 -2 -1 -1 -0 0 0 0 1 0 0 -0 -1 -1 -0 0 0 -0 -1 -1 -1 -1 -0 1 1 2 2 2 2
-3 -3 -3 -3 -4 -4 -4 -4 -5 -5 -5 -4 -4 -3 -2 -2 -1 -1 -0 1 1 1 1 1 1 0 -0 -1 -1 -1 -0 -0 -1 -1 -1 -1 -1 -1 -0 1 1 2 3 4
-3 -3 -3 -4 -4 -4 -5 -5 -5 -5 -5 -4 -4 -3 -2 -1 -1 0 1 2 2 2 2 2 1 1 -0 -1 -1 -0 0 0 -0 -0 -0 0 0 1 1 2 2 3 4 5
-3 -3 -3 -4 -5 -5 -5 -5 -5 -5 -4 -4 -3 -2 -2 -1 0 1 2 2 2 3 3 3 2 2 1 1 0 1 1 2 2 2 2 2 3 3 4 4 5 5 6 7
-3 -4 -4 -5 -6 -6 -5 -5 -5 -4 -4 -3 -3 -2 -1 -0 1 2 2 3 3 3 3 3 3 3 3 3 3 3 4 4 4 5 5 6 6 6 7 7 7 7 8 8
-4 -4 -5 -6 -6 -6 -5 -5 -4 -3 -3 -2 -2 -1 -0 1 2 2 3 3 3 3 4 4 5 5 6 6 7 7 7 7 8 8 8 8 8 8 8 8 8 7 7 8
-5 -5 -6 -6 -6 -5 -5 -4 -3 -3 -2 -2 -1 -0 0 1 2 3 3 3 4 4 5 7 8 8 9 10 9 9 9 9 9 10 10 9 9 9 8 8 8 7 7 7
-6 -6 -6 -6 -6 -5 -4 -3 -3 -2 -2 -1 -1 -0 1 2 2 3 3 4 5 6 8 9 10 10 11 11 11 10 10 10 10 9 9 9 8 8 8 7 7 7 7 6
-7 -7 -7 -6 -6 -5 -4 -3 -3 -2 -2 -1 -0 1 2 2 3 3 3 4 6 8 10 10 11 11 11 11 10 10 10 9 9 9 8 8 7 7 7 7 7 6 6 6
-7 -7 -7 -6 -5 -4 -4 -3 -3 -2 -1 -1 0 1 2 3 3 3 4 6 8 10 10 11 11 11 11 10 10 9 9 9 8 8 7 7 7 7 7 6 6 6 6 6
-7 -7 -6 -5 -5 -4 -4 -3 -2 -2 -1 0 1 2 3 3 4 5 6 8 10 10 10 11 12 12 11 10 9 9 8 8 7 7 7 7 7 6 6 6 6 6 6 6
-6 -6 -5 -5 -4 -3 -3 -2 -2 -1 0 1 2 3 4 5 7 8 9 10 11 11 11 12 12 12 10 9 9 8 8 7 7 7 7 6 6 6 6 6 6 6 6 6
-5 -5 -5 -4 -3 -2 -2 -1 -1 0 1 2 3 5 6 8 9 10 11 11 11 11 11 11 11 11 9 8 8 8 7 7 6 6 6 6 6 6 6 6 6 6 6 6
-4 -4 -3 -3 -2 -1 -1 -0 1 2 3 4 5 7 9 9 10 10 10 11 11 10 10 10 10 9 8 8 8 7 7 6 6 6 6 6 6 6 6 6 6 6 6 6
-3 -3 -2 -2 -1 -0 0 1 2 3 5 6 7 9 10 10 10 10 10 10 10 9 9 9 8 8 8 8 7 7 7 6 6 6 6 5 5 5 5 5 5 5 5 5